owner,sensor,date,latitude,longitude,vertical_datum,wind_speed,wind_to_direction,wind_speed_of_gust,qcFlag 
FIT,ioos:station:wmo:SIPF1:1,2014-12-01T00:00:00Z,27.8620,-80.4450,1.0,7.1,87.0,99.0,'11111222,11111222,11144222' 
FIT,ioos:station:wmo:SIPF1:1,2014-12-01T00:15:00Z,27.8620,-80.4450,1.0,6.7,92.0,99.0,'11111222,11111222,11144222' 
FIT,ioos:station:wmo:SIPF1:1,2014-12-01T00:30:00Z,27.8620,-80.4450,1.0,5.9,88.0,99.0,'11111222,11111222,11144222' 
FIT,ioos:station:wmo:SIPF1:1,2014-12-01T00:45:00Z,27.8620,-80.4450,1.0,6.2,79.0,99.0,'11111222,11111222,11144222' 
FIT,ioos:station:wmo:SIPF1:1,2014-12-01T01:00:00Z,27.8620,-80.4450,1.0,6.0,75.0,99.0,'11111222,11111222,11144222' 
FIT,ioos:station:wmo:SIPF1:1,2014-12-01T01:15:00Z,27.8620,-80.4450,1.0,5.7,73.0,99.0,'11111222,11111222,11144222' 
FIT,ioos:station:wmo:SIPF1:1,2014-12-01T01:30:00Z,27.8620,-80.4450,1.0,5.6,74.0,99.0,'11111222,11111222,11144222' 
FIT,ioos:station:wmo:SIPF1:1,2014-12-01T01:45:00Z,27.8620,-80.4450,1.0,6.1,79.0,99.0,'11111222,11111222,11144222' 
FIT,ioos:station:wmo:SIPF1:1,2014-12-01T02:00:00Z,27.8620,-80.4450,1.0,7.0,84.0,99.0,'11111222,11111222,11144222' 
FIT,ioos:station:wmo:SIPF1:1,2014-12-01T02:15:00Z,27.8620,-80.4450,1.0,7.4,92.0,99.0,'11111222,11111222,11144222' 
FIT,ioos:station:wmo:SIPF1:1,2014-12-01T02:30:00Z,27.8620,-80.4450,1.0,6.5,96.0,99.0,'11111222,11111222,11144222' 
FIT,ioos:station:wmo:SIPF1:1,2014-12-01T02:45:00Z,27.8620,-80.4450,1.0,5.9,95.0,99.0,'11111222,11111222,11144222' 
FIT,ioos:station:wmo:SIPF1:1,2014-12-01T03:00:00Z,27.8620,-80.4450,1.0,5.0,87.0,99.0,'11111222,11111222,11144222' 
FIT,ioos:station:wmo:SIPF1:1,2014-12-01T03:15:00Z,27.8620,-80.4450,1.0,4.8,86.0,99.0,'11111222,11111222,11144222' 
FIT,ioos:station:wmo:SIPF1:1,2014-12-01T03:30:00Z,27.8620,-80.4450,1.0,5.3,82.0,99.0,'11111222,11111222,11144222' 
FIT,ioos:station:wmo:SIPF1:1,2014-12-01T03:45:00Z,27.8620,-80.4450,1.0,6.0,81.0,99.0,'11111222,11111222,11144222' 
FIT,ioos:station:wmo:SIPF1:1,2014-12-01T04:00:00Z,27.8620,-80.4450,1.0,6.0,77.0,99.0,'11111222,11111222,11144222' 
FIT,ioos:station:wmo:SIPF1:1,2014-12-01T04:15:00Z,27.8620,-80.4450,1.0,5.7,89.0,99.0,'11111222,11111222,11144222' 
FIT,ioos:station:wmo:SIPF1:1,2014-12-01T04:30:00Z,27.8620,-80.4450,1.0,5.4,96.0,99.0,'11111222,11111222,11144222' 
FIT,ioos:station:wmo:SIPF1:1,2014-12-01T04:45:00Z,27.8620,-80.4450,1.0,5.7,88.0,99.0,'11111222,11111222,11144222' 
FIT,ioos:station:wmo:SIPF1:1,2014-12-01T05:00:00Z,27.8620,-80.4450,1.0,5.8,84.0,99.0,'11111222,11111222,11144222' 
FIT,ioos:station:wmo:SIPF1:1,2014-12-01T05:15:00Z,27.8620,-80.4450,1.0,5.9,92.0,99.0,'11111222,11111222,11144222' 
FIT,ioos:station:wmo:SIPF1:1,2014-12-01T05:30:00Z,27.8620,-80.4450,1.0,6.7,92.0,99.0,'11111222,11111222,11144222' 
FIT,ioos:station:wmo:SIPF1:1,2014-12-01T05:45:00Z,27.8620,-80.4450,1.0,5.9,98.0,99.0,'11111222,11111222,11144222' 
FIT,ioos:station:wmo:SIPF1:1,2014-12-01T06:00:00Z,27.8620,-80.4450,1.0,6.4,105.0,99.0,'11111222,11111222,11144222' 
FIT,ioos:station:wmo:SIPF1:1,2014-12-01T06:15:00Z,27.8620,-80.4450,1.0,5.9,106.0,99.0,'11111222,11111222,11144222' 
FIT,ioos:station:wmo:SIPF1:1,2014-12-01T06:30:00Z,27.8620,-80.4450,1.0,6.1,102.0,99.0,'11111222,11111222,11144222' 
FIT,ioos:station:wmo:SIPF1:1,2014-12-01T06:45:00Z,27.8620,-80.4450,1.0,6.0,101.0,99.0,'11111222,11111222,11144222' 
FIT,ioos:station:wmo:SIPF1:1,2014-12-01T07:00:00Z,27.8620,-80.4450,1.0,6.7,101.0,99.0,'11111222,11111222,11144222' 
FIT,ioos:station:wmo:SIPF1:1,2014-12-01T07:15:00Z,27.8620,-80.4450,1.0,6.2,96.0,99.0,'11111222,11111222,11144222' 
FIT,ioos:station:wmo:SIPF1:1,2014-12-01T07:30:00Z,27.8620,-80.4450,1.0,6.4,92.0,99.0,'11111222,11111222,11144222' 
FIT,ioos:station:wmo:SIPF1:1,2014-12-01T07:45:00Z,27.8620,-80.4450,1.0,6.3,85.0,99.0,'11111222,11111222,11144222' 
FIT,ioos:station:wmo:SIPF1:1,2014-12-01T08:00:00Z,27.8620,-80.4450,1.0,5.7,83.0,99.0,'11111222,11111222,11144222' 
FIT,ioos:station:wmo:SIPF1:1,2014-12-01T08:15:00Z,27.8620,-80.4450,1.0,6.1,81.0,99.0,'11111222,11111222,11144222' 
FIT,ioos:station:wmo:SIPF1:1,2014-12-01T08:30:00Z,27.8620,-80.4450,1.0,5.0,86.0,99.0,'11111222,11111222,11144222' 
FIT,ioos:station:wmo:SIPF1:1,2014-12-01T08:45:00Z,27.8620,-80.4450,1.0,4.6,98.0,99.0,'11111222,11111222,11144222' 
FIT,ioos:station:wmo:SIPF1:1,2014-12-01T09:00:00Z,27.8620,-80.4450,1.0,5.2,93.0,99.0,'11111222,11111222,11144222' 
FIT,ioos:station:wmo:SIPF1:1,2014-12-01T09:15:00Z,27.8620,-80.4450,1.0,5.5,87.0,99.0,'11111222,11111222,11144222' 
FIT,ioos:station:wmo:SIPF1:1,2014-12-01T09:30:00Z,27.8620,-80.4450,1.0,5.4,91.0,99.0,'11111222,11111222,11144222' 
FIT,ioos:station:wmo:SIPF1:1,2014-12-01T09:45:00Z,27.8620,-80.4450,1.0,4.4,94.0,99.0,'11111222,11111222,11144222' 
FIT,ioos:station:wmo:SIPF1:1,2014-12-01T10:00:00Z,27.8620,-80.4450,1.0,4.2,96.0,99.0,'11111222,11111222,11144222' 
FIT,ioos:station:wmo:SIPF1:1,2014-12-01T10:15:00Z,27.8620,-80.4450,1.0,4.3,96.0,99.0,'11111222,11111222,11144222' 
FIT,ioos:station:wmo:SIPF1:1,2014-12-01T10:45:00Z,27.8620,-80.4450,1.0,4.1,80.0,99.0,'11111222,11111222,11144222' 
FIT,ioos:station:wmo:SIPF1:1,2014-12-01T11:00:00Z,27.8620,-80.4450,1.0,4.2,83.0,99.0,'11111222,11111222,11144222' 
FIT,ioos:station:wmo:SIPF1:1,2014-12-01T11:15:00Z,27.8620,-80.4450,1.0,4.5,80.0,99.0,'11111222,11111222,11144222' 
FIT,ioos:station:wmo:SIPF1:1,2014-12-01T11:30:00Z,27.8620,-80.4450,1.0,5.1,70.0,99.0,'11111222,11111222,11144222' 
FIT,ioos:station:wmo:SIPF1:1,2014-12-01T11:45:00Z,27.8620,-80.4450,1.0,5.5,71.0,99.0,'11111222,11111222,11144222' 
FIT,ioos:station:wmo:SIPF1:1,2014-12-01T12:00:00Z,27.8620,-80.4450,1.0,6.6,68.0,99.0,'11111222,11111222,11144222' 
FIT,ioos:station:wmo:SIPF1:1,2014-12-01T12:15:00Z,27.8620,-80.4450,1.0,5.1,59.0,99.0,'11111222,11111222,11144222' 
FIT,ioos:station:wmo:SIPF1:1,2014-12-01T12:30:00Z,27.8620,-80.4450,1.0,5.2,74.0,99.0,'11111222,11111222,11144222' 
FIT,ioos:station:wmo:SIPF1:1,2014-12-01T12:45:00Z,27.8620,-80.4450,1.0,5.8,83.0,99.0,'11111222,11111222,11144222' 
FIT,ioos:station:wmo:SIPF1:1,2014-12-01T13:00:00Z,27.8620,-80.4450,1.0,6.1,80.0,99.0,'11111222,11111222,11144222' 
FIT,ioos:station:wmo:SIPF1:1,2014-12-01T13:15:00Z,27.8620,-80.4450,1.0,6.0,74.0,99.0,'11111222,11111222,11144222' 
FIT,ioos:station:wmo:SIPF1:1,2014-12-01T13:30:00Z,27.8620,-80.4450,1.0,5.7,69.0,99.0,'11111222,11111222,11144222' 
FIT,ioos:station:wmo:SIPF1:1,2014-12-01T13:45:00Z,27.8620,-80.4450,1.0,5.4,64.0,99.0,'11111222,11111222,11144222' 
FIT,ioos:station:wmo:SIPF1:1,2014-12-01T14:00:00Z,27.8620,-80.4450,1.0,5.1,78.0,99.0,'11111222,11111222,11144222' 
FIT,ioos:station:wmo:SIPF1:1,2014-12-01T14:15:00Z,27.8620,-80.4450,1.0,4.7,116.0,99.0,'11111222,11111222,11144222' 
FIT,ioos:station:wmo:SIPF1:1,2014-12-01T14:30:00Z,27.8620,-80.4450,1.0,5.0,95.0,99.0,'11111222,11111222,11144222' 
FIT,ioos:station:wmo:SIPF1:1,2014-12-01T14:45:00Z,27.8620,-80.4450,1.0,6.2,96.0,99.0,'11111222,11111222,11144222' 
FIT,ioos:station:wmo:SIPF1:1,2014-12-01T15:00:00Z,27.8620,-80.4450,1.0,6.0,95.0,99.0,'11111222,11111222,11144222' 
FIT,ioos:station:wmo:SIPF1:1,2014-12-01T15:15:00Z,27.8620,-80.4450,1.0,5.9,94.0,99.0,'11111222,11111222,11144222' 
FIT,ioos:station:wmo:SIPF1:1,2014-12-01T15:30:00Z,27.8620,-80.4450,1.0,5.6,106.0,99.0,'11111222,11111222,11144222' 
FIT,ioos:station:wmo:SIPF1:1,2014-12-01T15:45:00Z,27.8620,-80.4450,1.0,5.0,128.0,99.0,'11111222,11111222,11144222' 
FIT,ioos:station:wmo:SIPF1:1,2014-12-01T16:00:00Z,27.8620,-80.4450,1.0,5.1,106.0,99.0,'11111222,11111222,11144222' 
FIT,ioos:station:wmo:SIPF1:1,2014-12-01T16:15:00Z,27.8620,-80.4450,1.0,6.5,90.0,99.0,'11111222,11111222,11144222' 
FIT,ioos:station:wmo:SIPF1:1,2014-12-01T16:30:00Z,27.8620,-80.4450,1.0,6.3,92.0,99.0,'11111222,11111222,11144222' 
FIT,ioos:station:wmo:SIPF1:1,2014-12-01T16:45:00Z,27.8620,-80.4450,1.0,7.0,96.0,99.0,'11111222,11111222,11144222' 
FIT,ioos:station:wmo:SIPF1:1,2014-12-01T17:00:00Z,27.8620,-80.4450,1.0,6.8,96.0,99.0,'11111222,11111222,11144222' 
FIT,ioos:station:wmo:SIPF1:1,2014-12-01T17:15:00Z,27.8620,-80.4450,1.0,7.5,91.0,99.0,'11111222,11111222,11144222' 
FIT,ioos:station:wmo:SIPF1:1,2014-12-01T17:30:00Z,27.8620,-80.4450,1.0,6.9,87.0,99.0,'11111222,11111222,11144222' 
FIT,ioos:station:wmo:SIPF1:1,2014-12-01T17:45:00Z,27.8620,-80.4450,1.0,7.2,85.0,99.0,'11111222,11111222,11144222' 
FIT,ioos:station:wmo:SIPF1:1,2014-12-01T18:00:00Z,27.8620,-80.4450,1.0,6.5,84.0,99.0,'11111222,11111222,11144222' 
FIT,ioos:station:wmo:SIPF1:1,2014-12-01T18:15:00Z,27.8620,-80.4450,1.0,6.5,88.0,99.0,'11111222,11111222,11144222' 
FIT,ioos:station:wmo:SIPF1:1,2014-12-01T18:30:00Z,27.8620,-80.4450,1.0,6.6,91.0,99.0,'11111222,11111222,11144222' 
FIT,ioos:station:wmo:SIPF1:1,2014-12-01T18:45:00Z,27.8620,-80.4450,1.0,6.9,87.0,99.0,'11111222,11111222,11144222' 
FIT,ioos:station:wmo:SIPF1:1,2014-12-01T19:00:00Z,27.8620,-80.4450,1.0,7.2,84.0,99.0,'11111222,11111222,11144222' 
FIT,ioos:station:wmo:SIPF1:1,2014-12-01T19:15:00Z,27.8620,-80.4450,1.0,6.4,86.0,99.0,'11111222,11111222,11144222' 
FIT,ioos:station:wmo:SIPF1:1,2014-12-01T19:30:00Z,27.8620,-80.4450,1.0,6.4,89.0,99.0,'11111222,11111222,11144222' 
FIT,ioos:station:wmo:SIPF1:1,2014-12-01T19:45:00Z,27.8620,-80.4450,1.0,6.2,82.0,99.0,'11111222,11111222,11144222' 
FIT,ioos:station:wmo:SIPF1:1,2014-12-01T20:00:00Z,27.8620,-80.4450,1.0,6.3,78.0,99.0,'11111222,11111222,11144222' 
FIT,ioos:station:wmo:SIPF1:1,2014-12-01T20:15:00Z,27.8620,-80.4450,1.0,6.3,76.0,99.0,'11111222,11111222,11144222' 
FIT,ioos:station:wmo:SIPF1:1,2014-12-01T20:30:00Z,27.8620,-80.4450,1.0,6.5,81.0,99.0,'11111222,11111222,11144222' 
FIT,ioos:station:wmo:SIPF1:1,2014-12-01T20:45:00Z,27.8620,-80.4450,1.0,7.0,78.0,99.0,'11111222,11111222,11144222' 
FIT,ioos:station:wmo:SIPF1:1,2014-12-01T21:00:00Z,27.8620,-80.4450,1.0,7.0,80.0,99.0,'11111222,11111222,11144222' 
FIT,ioos:station:wmo:SIPF1:1,2014-12-01T21:15:00Z,27.8620,-80.4450,1.0,6.8,81.0,99.0,'11111222,11111222,11144222' 
FIT,ioos:station:wmo:SIPF1:1,2014-12-01T21:30:00Z,27.8620,-80.4450,1.0,8.0,82.0,99.0,'11111222,11111222,11144222' 
FIT,ioos:station:wmo:SIPF1:1,2014-12-01T21:45:00Z,27.8620,-80.4450,1.0,8.8,85.0,99.0,'11111222,11111222,11144222' 
FIT,ioos:station:wmo:SIPF1:1,2014-12-01T22:00:00Z,27.8620,-80.4450,1.0,8.2,84.0,99.0,'11111222,11111222,11144222' 
FIT,ioos:station:wmo:SIPF1:1,2014-12-01T22:15:00Z,27.8620,-80.4450,1.0,7.8,82.0,99.0,'11111222,11111222,11144222' 
FIT,ioos:station:wmo:SIPF1:1,2014-12-01T22:30:00Z,27.8620,-80.4450,1.0,7.7,83.0,99.0,'11111222,11111222,11144222' 
FIT,ioos:station:wmo:SIPF1:1,2014-12-01T22:45:00Z,27.8620,-80.4450,1.0,7.7,79.0,99.0,'11111222,11111222,11144222' 
FIT,ioos:station:wmo:SIPF1:1,2014-12-01T23:00:00Z,27.8620,-80.4450,1.0,7.3,80.0,99.0,'11111222,11111222,11144222' 
FIT,ioos:station:wmo:SIPF1:1,2014-12-01T23:15:00Z,27.8620,-80.4450,1.0,8.1,85.0,99.0,'11111222,11111222,11144222' 
FIT,ioos:station:wmo:SIPF1:1,2014-12-01T23:30:00Z,27.8620,-80.4450,1.0,7.6,87.0,99.0,'11111222,11111222,11144222' 
FIT,ioos:station:wmo:SIPF1:1,2014-12-01T23:45:00Z,27.8620,-80.4450,1.0,8.0,88.0,99.0,'11111222,11111222,11144222' 
FIT,ioos:station:wmo:SIPF1:1,2014-12-02T00:00:00Z,27.8620,-80.4450,1.0,8.9,95.0,99.0,'11111222,11111222,11144222' 
FIT,ioos:station:wmo:SIPF1:1,2014-12-02T00:15:00Z,27.8620,-80.4450,1.0,9.4,93.0,99.0,'11111222,11111222,11144222' 
FIT,ioos:station:wmo:SIPF1:1,2014-12-02T00:30:00Z,27.8620,-80.4450,1.0,8.9,88.0,99.0,'11111222,11111222,11144222' 
FIT,ioos:station:wmo:SIPF1:1,2014-12-02T00:45:00Z,27.8620,-80.4450,1.0,9.1,88.0,99.0,'11111222,11111222,11144222' 
FIT,ioos:station:wmo:SIPF1:1,2014-12-02T01:00:00Z,27.8620,-80.4450,1.0,8.8,90.0,99.0,'11111222,11111222,11144222' 
FIT,ioos:station:wmo:SIPF1:1,2014-12-02T01:15:00Z,27.8620,-80.4450,1.0,6.6,96.0,99.0,'11111222,11111222,11144222' 
FIT,ioos:station:wmo:SIPF1:1,2014-12-02T01:30:00Z,27.8620,-80.4450,1.0,6.3,94.0,99.0,'11111222,11111222,11144222' 
FIT,ioos:station:wmo:SIPF1:1,2014-12-02T01:45:00Z,27.8620,-80.4450,1.0,8.4,68.0,99.0,'11111222,11111222,11144222' 
FIT,ioos:station:wmo:SIPF1:1,2014-12-02T02:00:00Z,27.8620,-80.4450,1.0,6.4,70.0,99.0,'11111222,11111222,11144222' 
FIT,ioos:station:wmo:SIPF1:1,2014-12-02T02:15:00Z,27.8620,-80.4450,1.0,6.8,93.0,99.0,'11111222,11111222,11144222' 
FIT,ioos:station:wmo:SIPF1:1,2014-12-02T02:30:00Z,27.8620,-80.4450,1.0,7.9,97.0,99.0,'11111222,11111222,11144222' 
FIT,ioos:station:wmo:SIPF1:1,2014-12-02T02:45:00Z,27.8620,-80.4450,1.0,7.7,98.0,99.0,'11111222,11111222,11144222' 
FIT,ioos:station:wmo:SIPF1:1,2014-12-02T03:00:00Z,27.8620,-80.4450,1.0,7.8,96.0,99.0,'11111222,11111222,11144222' 
FIT,ioos:station:wmo:SIPF1:1,2014-12-02T03:15:00Z,27.8620,-80.4450,1.0,7.3,94.0,99.0,'11111222,11111222,11144222' 
FIT,ioos:station:wmo:SIPF1:1,2014-12-02T03:30:00Z,27.8620,-80.4450,1.0,6.9,99.0,99.0,'11111222,11111222,11144222' 
FIT,ioos:station:wmo:SIPF1:1,2014-12-02T03:45:00Z,27.8620,-80.4450,1.0,6.5,99.0,99.0,'11111222,11111222,11144222' 
FIT,ioos:station:wmo:SIPF1:1,2014-12-02T04:00:00Z,27.8620,-80.4450,1.0,6.4,98.0,99.0,'11111222,11111222,11144222' 
FIT,ioos:station:wmo:SIPF1:1,2014-12-02T04:15:00Z,27.8620,-80.4450,1.0,6.0,95.0,99.0,'11111222,11111222,11144222' 
FIT,ioos:station:wmo:SIPF1:1,2014-12-02T04:30:00Z,27.8620,-80.4450,1.0,5.8,97.0,99.0,'11111222,11111222,11144222' 
FIT,ioos:station:wmo:SIPF1:1,2014-12-02T04:45:00Z,27.8620,-80.4450,1.0,6.1,92.0,99.0,'11111222,11111222,11144222' 
FIT,ioos:station:wmo:SIPF1:1,2014-12-02T05:00:00Z,27.8620,-80.4450,1.0,9.0,102.0,99.0,'11111222,11111222,11144222' 
FIT,ioos:station:wmo:SIPF1:1,2014-12-02T05:15:00Z,27.8620,-80.4450,1.0,10.7,94.0,99.0,'11111222,11111222,11144222' 
FIT,ioos:station:wmo:SIPF1:1,2014-12-02T05:30:00Z,27.8620,-80.4450,1.0,9.0,73.0,99.0,'11111222,11111222,11144222' 
FIT,ioos:station:wmo:SIPF1:1,2014-12-02T05:45:00Z,27.8620,-80.4450,1.0,7.2,57.0,99.0,'11111222,11111222,11144222' 
FIT,ioos:station:wmo:SIPF1:1,2014-12-02T06:00:00Z,27.8620,-80.4450,1.0,6.0,68.0,99.0,'11111222,11111222,11144222' 
FIT,ioos:station:wmo:SIPF1:1,2014-12-02T06:15:00Z,27.8620,-80.4450,1.0,3.2,70.0,99.0,'11111222,11111222,11144222' 
FIT,ioos:station:wmo:SIPF1:1,2014-12-02T06:30:00Z,27.8620,-80.4450,1.0,5.5,84.0,99.0,'11111222,11111222,11144222' 
FIT,ioos:station:wmo:SIPF1:1,2014-12-02T06:45:00Z,27.8620,-80.4450,1.0,6.8,83.0,99.0,'11111222,11111222,11144222' 
FIT,ioos:station:wmo:SIPF1:1,2014-12-02T07:00:00Z,27.8620,-80.4450,1.0,6.1,86.0,99.0,'11111222,11111222,11144222' 
FIT,ioos:station:wmo:SIPF1:1,2014-12-02T07:15:00Z,27.8620,-80.4450,1.0,5.6,88.0,99.0,'11111222,11111222,11144222' 
FIT,ioos:station:wmo:SIPF1:1,2014-12-02T07:30:00Z,27.8620,-80.4450,1.0,6.0,89.0,99.0,'11111222,11111222,11144222' 
FIT,ioos:station:wmo:SIPF1:1,2014-12-02T07:45:00Z,27.8620,-80.4450,1.0,7.6,87.0,99.0,'11111222,11111222,11144222' 
FIT,ioos:station:wmo:SIPF1:1,2014-12-02T08:00:00Z,27.8620,-80.4450,1.0,7.4,83.0,99.0,'11111222,11111222,11144222' 
FIT,ioos:station:wmo:SIPF1:1,2014-12-02T08:15:00Z,27.8620,-80.4450,1.0,9.2,81.0,99.0,'11111222,11111222,11144222' 
FIT,ioos:station:wmo:SIPF1:1,2014-12-02T08:30:00Z,27.8620,-80.4450,1.0,8.4,73.0,99.0,'11111222,11111222,11144222' 
FIT,ioos:station:wmo:SIPF1:1,2014-12-02T08:45:00Z,27.8620,-80.4450,1.0,7.4,65.0,99.0,'11111222,11111222,11144222' 
FIT,ioos:station:wmo:SIPF1:1,2014-12-02T09:00:00Z,27.8620,-80.4450,1.0,6.5,62.0,99.0,'11111222,11111222,11144222' 
FIT,ioos:station:wmo:SIPF1:1,2014-12-02T09:15:00Z,27.8620,-80.4450,1.0,6.2,51.0,99.0,'11111222,11111222,11144222' 
FIT,ioos:station:wmo:SIPF1:1,2014-12-02T09:30:00Z,27.8620,-80.4450,1.0,5.8,44.0,99.0,'11111222,11111222,11144222' 
FIT,ioos:station:wmo:SIPF1:1,2014-12-02T09:45:00Z,27.8620,-80.4450,1.0,6.7,54.0,99.0,'11111222,11111222,11144222' 
FIT,ioos:station:wmo:SIPF1:1,2014-12-02T10:00:00Z,27.8620,-80.4450,1.0,5.2,76.0,99.0,'11111222,11111222,11144222' 
FIT,ioos:station:wmo:SIPF1:1,2014-12-02T10:15:00Z,27.8620,-80.4450,1.0,6.9,81.0,99.0,'11111222,11111222,11144222' 
FIT,ioos:station:wmo:SIPF1:1,2014-12-02T10:30:00Z,27.8620,-80.4450,1.0,7.3,77.0,99.0,'11111222,11111222,11144222' 
FIT,ioos:station:wmo:SIPF1:1,2014-12-02T10:45:00Z,27.8620,-80.4450,1.0,7.9,80.0,99.0,'11111222,11111222,11144222' 
FIT,ioos:station:wmo:SIPF1:1,2014-12-02T11:00:00Z,27.8620,-80.4450,1.0,6.9,79.0,99.0,'11111222,11111222,11144222' 
FIT,ioos:station:wmo:SIPF1:1,2014-12-02T11:15:00Z,27.8620,-80.4450,1.0,7.4,75.0,99.0,'11111222,11111222,11144222' 
FIT,ioos:station:wmo:SIPF1:1,2014-12-02T11:30:00Z,27.8620,-80.4450,1.0,6.6,91.0,99.0,'11111222,11111222,11144222' 
FIT,ioos:station:wmo:SIPF1:1,2014-12-02T11:45:00Z,27.8620,-80.4450,1.0,7.6,82.0,99.0,'11111222,11111222,11144222' 
FIT,ioos:station:wmo:SIPF1:1,2014-12-02T12:00:00Z,27.8620,-80.4450,1.0,8.0,87.0,99.0,'11111222,11111222,11144222' 
FIT,ioos:station:wmo:SIPF1:1,2014-12-02T12:15:00Z,27.8620,-80.4450,1.0,9.8,108.0,99.0,'11111222,11111222,11144222' 
FIT,ioos:station:wmo:SIPF1:1,2014-12-02T12:30:00Z,27.8620,-80.4450,1.0,9.2,121.0,99.0,'11111222,11111222,11144222' 
FIT,ioos:station:wmo:SIPF1:1,2014-12-02T12:45:00Z,27.8620,-80.4450,1.0,9.2,120.0,99.0,'11111222,11111222,11144222' 
FIT,ioos:station:wmo:SIPF1:1,2014-12-02T13:00:00Z,27.8620,-80.4450,1.0,11.0,115.0,99.0,'11111222,11111222,11144222' 
FIT,ioos:station:wmo:SIPF1:1,2014-12-02T13:15:00Z,27.8620,-80.4450,1.0,7.7,110.0,99.0,'11111222,11111222,11144222' 
FIT,ioos:station:wmo:SIPF1:1,2014-12-02T13:30:00Z,27.8620,-80.4450,1.0,5.0,118.0,99.0,'11111222,11111222,11144222' 
FIT,ioos:station:wmo:SIPF1:1,2014-12-02T13:45:00Z,27.8620,-80.4450,1.0,4.8,109.0,99.0,'11111222,11111222,11144222' 
FIT,ioos:station:wmo:SIPF1:1,2014-12-02T14:00:00Z,27.8620,-80.4450,1.0,7.1,99.0,99.0,'11111222,11111222,11144222' 
FIT,ioos:station:wmo:SIPF1:1,2014-12-02T14:15:00Z,27.8620,-80.4450,1.0,6.8,101.0,99.0,'11111222,11111222,11144222' 
FIT,ioos:station:wmo:SIPF1:1,2014-12-02T14:30:00Z,27.8620,-80.4450,1.0,6.6,105.0,99.0,'11111222,11111222,11144222' 
FIT,ioos:station:wmo:SIPF1:1,2014-12-02T14:45:00Z,27.8620,-80.4450,1.0,7.1,112.0,99.0,'11111222,11111222,11144222' 
FIT,ioos:station:wmo:SIPF1:1,2014-12-02T15:00:00Z,27.8620,-80.4450,1.0,7.1,110.0,99.0,'11111222,11111222,11144222' 
FIT,ioos:station:wmo:SIPF1:1,2014-12-02T15:15:00Z,27.8620,-80.4450,1.0,5.5,115.0,99.0,'11111222,11111222,11144222' 
FIT,ioos:station:wmo:SIPF1:1,2014-12-02T15:30:00Z,27.8620,-80.4450,1.0,8.4,142.0,99.0,'11111222,11111222,11144222' 
FIT,ioos:station:wmo:SIPF1:1,2014-12-02T15:45:00Z,27.8620,-80.4450,1.0,8.8,138.0,99.0,'11111222,11111222,11144222' 
FIT,ioos:station:wmo:SIPF1:1,2014-12-02T16:00:00Z,27.8620,-80.4450,1.0,6.7,153.0,99.0,'11111222,11111222,11144222' 
FIT,ioos:station:wmo:SIPF1:1,2014-12-02T16:15:00Z,27.8620,-80.4450,1.0,4.5,158.0,99.0,'11111222,11111222,11144222' 
FIT,ioos:station:wmo:SIPF1:1,2014-12-02T16:30:00Z,27.8620,-80.4450,1.0,4.7,155.0,99.0,'11111222,11111222,11144222' 
FIT,ioos:station:wmo:SIPF1:1,2014-12-02T16:45:00Z,27.8620,-80.4450,1.0,5.4,150.0,99.0,'11111222,11111222,11144222' 
FIT,ioos:station:wmo:SIPF1:1,2014-12-02T17:00:00Z,27.8620,-80.4450,1.0,3.8,152.0,99.0,'11111222,11111222,11144222' 
FIT,ioos:station:wmo:SIPF1:1,2014-12-02T17:15:00Z,27.8620,-80.4450,1.0,3.3,160.0,99.0,'11111222,11111222,11144222' 
FIT,ioos:station:wmo:SIPF1:1,2014-12-02T17:30:00Z,27.8620,-80.4450,1.0,2.5,165.0,99.0,'11111222,11111222,11144222' 
FIT,ioos:station:wmo:SIPF1:1,2014-12-02T17:45:00Z,27.8620,-80.4450,1.0,2.4,169.0,99.0,'11111222,11111222,11144222' 
FIT,ioos:station:wmo:SIPF1:1,2014-12-02T18:00:00Z,27.8620,-80.4450,1.0,1.3,163.0,99.0,'11111222,11111222,11144222' 
FIT,ioos:station:wmo:SIPF1:1,2014-12-02T18:15:00Z,27.8620,-80.4450,1.0,0.7,168.0,99.0,'11111222,11111222,11144222' 
FIT,ioos:station:wmo:SIPF1:1,2014-12-02T18:30:00Z,27.8620,-80.4450,1.0,0.1,156.0,99.0,'11111222,11111222,11144222' 
FIT,ioos:station:wmo:SIPF1:1,2014-12-02T18:45:00Z,27.8620,-80.4450,1.0,0.3,334.0,99.0,'11111222,11111222,11144222' 
FIT,ioos:station:wmo:SIPF1:1,2014-12-02T19:00:00Z,27.8620,-80.4450,1.0,1.0,354.0,99.0,'11111222,11111222,11144222' 
FIT,ioos:station:wmo:SIPF1:1,2014-12-02T19:15:00Z,27.8620,-80.4450,1.0,1.3,349.0,99.0,'11111222,11111222,11144222' 
FIT,ioos:station:wmo:SIPF1:1,2014-12-02T19:30:00Z,27.8620,-80.4450,1.0,1.6,10.0,99.0,'11111222,11111222,11144222' 
FIT,ioos:station:wmo:SIPF1:1,2014-12-02T19:45:00Z,27.8620,-80.4450,1.0,1.6,29.0,99.0,'11111222,11111222,11144222' 
FIT,ioos:station:wmo:SIPF1:1,2014-12-02T20:00:00Z,27.8620,-80.4450,1.0,1.9,69.0,99.0,'11111222,11111222,11144222' 
FIT,ioos:station:wmo:SIPF1:1,2014-12-02T20:15:00Z,27.8620,-80.4450,1.0,2.6,73.0,99.0,'11111222,11111222,11144222' 
FIT,ioos:station:wmo:SIPF1:1,2014-12-02T20:30:00Z,27.8620,-80.4450,1.0,4.1,67.0,99.0,'11111222,11111222,11144222' 
FIT,ioos:station:wmo:SIPF1:1,2014-12-02T20:45:00Z,27.8620,-80.4450,1.0,5.8,76.0,99.0,'11111222,11111222,11144222' 
FIT,ioos:station:wmo:SIPF1:1,2014-12-02T21:00:00Z,27.8620,-80.4450,1.0,7.4,111.0,99.0,'11111222,11111222,11144222' 
FIT,ioos:station:wmo:SIPF1:1,2014-12-02T21:15:00Z,27.8620,-80.4450,1.0,9.2,126.0,99.0,'11111222,11111222,11144222' 
FIT,ioos:station:wmo:SIPF1:1,2014-12-02T21:30:00Z,27.8620,-80.4450,1.0,8.7,124.0,99.0,'11111222,11111222,11144222' 
FIT,ioos:station:wmo:SIPF1:1,2014-12-02T21:45:00Z,27.8620,-80.4450,1.0,5.6,121.0,99.0,'11111222,11111222,11144222' 
FIT,ioos:station:wmo:SIPF1:1,2014-12-02T22:00:00Z,27.8620,-80.4450,1.0,4.9,117.0,99.0,'11111222,11111222,11144222' 
FIT,ioos:station:wmo:SIPF1:1,2014-12-02T22:15:00Z,27.8620,-80.4450,1.0,4.9,111.0,99.0,'11111222,11111222,11144222' 
FIT,ioos:station:wmo:SIPF1:1,2014-12-02T22:30:00Z,27.8620,-80.4450,1.0,7.4,103.0,99.0,'11111222,11111222,11144222' 
FIT,ioos:station:wmo:SIPF1:1,2014-12-02T22:45:00Z,27.8620,-80.4450,1.0,7.9,119.0,99.0,'11111222,11111222,11144222' 
FIT,ioos:station:wmo:SIPF1:1,2014-12-02T23:00:00Z,27.8620,-80.4450,1.0,5.6,126.0,99.0,'11111222,11111222,11144222' 
FIT,ioos:station:wmo:SIPF1:1,2014-12-02T23:15:00Z,27.8620,-80.4450,1.0,4.4,118.0,99.0,'11111222,11111222,11144222' 
FIT,ioos:station:wmo:SIPF1:1,2014-12-02T23:30:00Z,27.8620,-80.4450,1.0,6.8,104.0,99.0,'11111222,11111222,11144222' 
FIT,ioos:station:wmo:SIPF1:1,2014-12-02T23:45:00Z,27.8620,-80.4450,1.0,7.9,115.0,99.0,'11111222,11111222,11144222' 
FIT,ioos:station:wmo:SIPF1:1,2014-12-03T00:00:00Z,27.8620,-80.4450,1.0,7.3,117.0,99.0,'11111222,11111222,11144222' 
FIT,ioos:station:wmo:SIPF1:1,2014-12-03T00:15:00Z,27.8620,-80.4450,1.0,8.4,112.0,99.0,'11111222,11111222,11144222' 
FIT,ioos:station:wmo:SIPF1:1,2014-12-03T00:30:00Z,27.8620,-80.4450,1.0,9.1,95.0,99.0,'11111222,11111222,11144222' 
FIT,ioos:station:wmo:SIPF1:1,2014-12-03T00:45:00Z,27.8620,-80.4450,1.0,9.8,88.0,99.0,'11111222,11111222,11144222' 
FIT,ioos:station:wmo:SIPF1:1,2014-12-03T01:00:00Z,27.8620,-80.4450,1.0,9.9,87.0,99.0,'11111222,11111222,11144222' 
FIT,ioos:station:wmo:SIPF1:1,2014-12-03T01:15:00Z,27.8620,-80.4450,1.0,9.5,88.0,99.0,'11111222,11111222,11144222' 
FIT,ioos:station:wmo:SIPF1:1,2014-12-03T01:30:00Z,27.8620,-80.4450,1.0,8.8,94.0,99.0,'11111222,11111222,11144222' 
FIT,ioos:station:wmo:SIPF1:1,2014-12-03T01:45:00Z,27.8620,-80.4450,1.0,8.9,96.0,99.0,'11111222,11111222,11144222' 
FIT,ioos:station:wmo:SIPF1:1,2014-12-03T02:00:00Z,27.8620,-80.4450,1.0,5.2,93.0,99.0,'11111222,11111222,11144222' 
FIT,ioos:station:wmo:SIPF1:1,2014-12-03T02:15:00Z,27.8620,-80.4450,1.0,4.2,77.0,99.0,'11111222,11111222,11144222' 
FIT,ioos:station:wmo:SIPF1:1,2014-12-03T02:30:00Z,27.8620,-80.4450,1.0,3.1,43.0,99.0,'11111222,11111222,11144222' 
FIT,ioos:station:wmo:SIPF1:1,2014-12-03T02:45:00Z,27.8620,-80.4450,1.0,2.3,53.0,99.0,'11111222,11111222,11144222' 
FIT,ioos:station:wmo:SIPF1:1,2014-12-03T03:00:00Z,27.8620,-80.4450,1.0,1.6,69.0,99.0,'11111222,11111222,11144222' 
FIT,ioos:station:wmo:SIPF1:1,2014-12-03T03:15:00Z,27.8620,-80.4450,1.0,0.9,74.0,99.0,'11111222,11111222,11144222' 
FIT,ioos:station:wmo:SIPF1:1,2014-12-03T03:30:00Z,27.8620,-80.4450,1.0,0.8,51.0,99.0,'11111222,11111222,11144222' 
FIT,ioos:station:wmo:SIPF1:1,2014-12-03T03:45:00Z,27.8620,-80.4450,1.0,1.5,40.0,99.0,'11111222,11111222,11144222' 